EW2849 Weather Reports


Display with metric or nautical units.
time (UTC)temp
F
wind
direction
speed
MPH
gust
MPH
rain 1hr
in
rain 24hr
in
rain mn
in
humidity
%
barometer
mb
20260509204518 59 41 4.0 7.0 0.00 0.00 0.00 68 1015.6
20260509203316 60 42 2.0 5.0 0.00 0.00 0.00 67 1015.6
20260509202115 61 45 2.0 3.0 0.00 0.00 0.00 66 1015.6
20260509201014 61 44 5.0 8.0 0.00 0.00 0.00 65 1015.6
20260509195833 62 29 5.0 7.0 0.00 0.00 0.00 64 1015.6
20260509194612 62 50 4.0 6.0 0.00 0.00 0.00 63 1015.6
20260509193431 63 45 4.0 7.0 0.00 0.00 0.00 62 1015.6
20260509192210 64 26 6.0 7.0 0.00 0.00 0.00 61 1015.6
20260509191009 64 23 5.0 7.0 0.00 0.00 0.00 60 1015.6
20260509185808 65 27 5.0 7.0 0.00 0.00 0.00 59 1015.6
20260509184607 65 38 6.0 9.0 0.00 0.00 0.00 59 1015.6
20260509183406 66 40 6.0 9.0 0.00 0.00 0.00 58 1015.6
20260509182205 67 35 4.0 9.0 0.00 0.00 0.00 57 1015.6
20260509181003 67 40 5.0 6.0 0.00 0.00 0.00 56 1015.6
20260509175802 68 39 5.0 7.0 0.00 0.00 0.00 56 1015.6
20260509174601 68 45 7.0 7.0 0.00 0.00 0.00 55 1015.6
20260509173400 68 18 7.0 9.0 0.00 0.00 0.00 55 1015.6
20260509172217 68 30 4.0 6.0 0.00 0.00 0.00 54 1015.6
20260509170957 69 39 5.0 6.0 0.00 0.00 0.00 54 1015.6
20260509165756 69 29 6.0 8.0 0.00 0.00 0.00 53 1015.6
20260509164554 69 36 7.0 9.0 0.00 0.00 0.00 52 1015.6
20260509163353 70 45 6.0 7.0 0.00 0.00 0.00 53 1015.6
20260509162152 70 53 3.0 6.0 0.00 0.00 0.00 53 1015.6
20260509161010 70 113 5.0 6.0 0.00 0.00 0.00 52 1015.6
20260509155749 70 65 6.0 8.0 0.00 0.00 0.00 52 1015.6
20260509154547 71 58 5.0 8.0 0.00 0.00 0.00 51 1015.6
20260509153346 71 23 8.0 9.0 0.00 0.00 0.00 50 1015.6
20260509152144 72 34 6.0 10.0 0.00 0.00 0.00 49 1015.6
20260509150944 75 38 8.0 11.0 0.00 0.00 0.00 48 1015.6
20260509145742 75 286 2.0 4.0 0.00 0.00 0.00 50 1015.6
20260509144540 71 65 3.0 5.0 0.00 0.00 0.00 51 1015.6
20260509143359 72 96 6.0 6.0 0.00 0.00 0.00 49 1015.6
20260509142137 74 45 4.0 6.0 0.00 0.00 0.00 48 1015.6
20260509140956 75 57 8.0 13.0 0.00 0.00 0.00 48 1015.6
20260509135735 74 353 2.0 5.0 0.00 0.00 0.00 49 1015.6
20260509134534 73 59 6.0 8.0 0.00 0.00 0.00 50 1015.6
20260509133333 73 349 7.0 9.0 0.00 0.00 0.00 51 1015.6
20260509132132 72 51 4.0 7.0 0.00 0.00 0.00 52 1015.6
20260509130930 73 29 5.0 6.0 0.00 0.00 0.00 52 1015.6
20260509125728 73 45 8.0 11.0 0.00 0.00 0.00 50 1015.6
20260509124527 73 70 5.0 7.0 0.00 0.00 0.00 50 1015.6
20260509123326 74 61 6.0 8.0 0.00 0.00 0.00 49 1015.6
20260509122125 76 22 8.0 10.0 0.00 0.00 0.00 49 1015.6
20260509120923 74 27 5.0 6.0 0.00 0.00 0.00 51 1015.6
20260509115722 73 71 6.0 9.0 0.00 0.00 0.00 51 1015.6
20260509114521 72 68 7.0 11.0 0.00 0.00 0.00 52 1015.6
20260509113320 72 34 5.0 7.0 0.00 0.00 0.00 53 1015.6
20260509112118 72 57 7.0 9.0 0.00 0.00 0.00 51 1015.6
20260509110918 72 55 7.0 9.0 0.00 0.00 0.00 51 1015.6
20260509105717 74 33 9.0 11.0 0.00 0.00 0.00 52 1015.6
20260509104516 73 85 7.0 8.0 0.00 0.00 0.00 52 1015.6
20260509103335 73 102 5.0 8.0 0.00 0.00 0.00 53 1015.6
20260509102214 72 65 8.0 11.0 0.00 0.00 0.00 53 1015.6
20260509101013 71 62 9.0 13.0 0.00 0.00 0.00 54 1015.6
20260509095813 71 49 9.0 11.0 0.00 0.00 0.00 58 1015.6
20260509094612 70 45 5.0 9.0 0.00 0.00 0.00 59 1015.6
20260509093431 68 45 7.0 9.0 0.00 0.00 0.00 62 1015.6
20260509092209 69 45 10.0 11.0 0.00 0.00 0.00 61 1015.6
20260509091008 68 45 6.0 9.0 0.00 0.00 0.00 61 1015.6
20260509085807 68 38 8.0 11.0 0.00 0.00 0.00 61 1016.5
20260509084605 67 68 9.0 11.0 0.00 0.00 0.00 62 1015.6
20260509083424 66 62 5.0 8.0 0.00 0.00 0.00 68 1015.6
20260509082204 65 45 6.0 10.0 0.00 0.00 0.00 70 1015.6
20260509081002 64 74 4.0 6.0 0.00 0.00 0.00 73 1015.6
20260509075801 63 45 7.0 11.0 0.00 0.00 0.00 76 1019.0
20260509074559 62 55 5.0 9.0 0.00 0.00 0.00 80 1019.0
20260509073518 60 35 3.0 5.0 0.00 0.00 0.00 83 1019.0
20260509072158 59 32 2.0 4.0 0.00 0.00 0.00 86 1018.2
20260509070957 58 68 2.0 3.0 0.00 0.00 0.00 88 1018.2
20260509065755 56 57 4.0 5.0 0.00 0.00 0.00 90 1017.3
20260509064554 54 51 4.0 5.0 0.00 0.00 0.00 91 1015.6
20260509063353 53 68 4.0 5.0 0.00 0.00 0.00 93 1015.6
20260509062211 52 53 4.0 5.0 0.00 0.00 0.00 93 1016.5
20260509060951 51 56 4.0 7.0 0.00 0.00 0.00 94 1015.6
20260509055749 50 45 3.0 5.0 0.00 0.00 0.00 94 1019.0
20260509054549 49 45 4.0 6.0 0.00 0.00 0.00 94 1015.6
20260509053347 49 45 3.0 4.0 0.00 0.00 0.00 94 1015.6
20260509052147 49 45 2.0 3.0 0.00 0.00 0.00 94 1015.6
20260509050945 49 45 3.0 4.0 0.00 0.00 0.00 94 1015.6
20260509045744 48 23 1.0 1.0 0.00 0.00 0.00 93 1015.6
20260509044543 47 23 2.0 3.0 0.00 0.00 0.00 92 1015.6
20260509043341 47 65 0.0 1.0 0.00 0.00 0.00 92 1015.6
20260509042141 47 45 1.0 2.0 0.00 0.00 0.00 91 1015.6
20260509040939 47 45 0.0 1.0 0.00 0.00 0.00 91 1015.6
20260509035758 47 23 0.0 1.0 0.00 0.00 0.00 91 1015.6
20260509034537 47 45 0.0 1.0 0.00 0.00 0.00 90 1015.6
20260509033336 48 45 0.0 1.0 0.00 0.00 0.00 90 1015.6
20260509032135 48 45 1.0 2.0 0.00 0.00 0.00 90 1015.6
20260509030934 49 32 2.0 3.0 0.00 0.00 0.00 89 1015.6
20260509025753 49 23 1.0 2.0 0.00 0.00 0.00 89 1015.6
20260509024551 49 41 1.0 2.0 0.00 0.00 0.00 89 1015.6
20260509023329 49 36 2.0 3.0 0.00 0.00 0.00 88 1015.6
20260509022718 49 45 2.0 3.0 0.00 0.00 0.00 88 1015.6
20260509021517 49 34 2.0 3.0 0.00 0.00 0.00 88 1017.3
20260509020317 49 34 2.0 3.0 0.00 0.00 0.00 87 1015.6
20260509015115 49 45 2.0 3.0 0.00 0.00 0.00 86 1015.6
20260509014014 49 45 1.0 2.0 0.00 0.00 0.00 86 1015.6
20260509012813 50 40 1.0 2.0 0.00 0.00 0.00 86 1015.6
20260509011612 50 45 2.0 3.0 0.00 0.00 0.00 85 1018.2
20260509010431 50 28 2.0 3.0 0.00 0.00 0.00 85 1019.0
20260509005210 50 45 2.0 2.0 0.00 0.00 0.00 84 1016.5
20260509004007 51 45 2.0 5.0 0.00 0.00 0.00 84 1015.6
20260509002806 51 45 2.0 3.0 0.00 0.00 0.00 84 1018.2
20260509001625 51 45 1.0 3.0 0.00 0.00 0.00 83 1017.3
20260509000425 51 45 2.0 3.0 0.00 0.00 0.00 82 1019.0
20260508235203 51 45 2.0 3.0 0.00 0.00 0.00 81 1019.0
20260508234021 52 61 2.0 2.0 0.00 0.00 0.00 81 1019.0
20260508232801 52 45 1.0 2.0 0.00 0.00 0.00 80 1019.0
20260508231559 53 45 1.0 2.0 0.00 0.00 0.00 80 1019.0
20260508230357 53 56 1.0 3.0 0.00 0.00 0.00 79 1019.0
20260508225156 54 45 3.0 3.0 0.00 0.00 0.00 78 1019.0
20260508223955 54 59 1.0 3.0 0.00 0.00 0.00 77 1019.0
20260508222753 54 29 2.0 4.0 0.00 0.00 0.00 77 1017.3
20260508221552 55 45 3.0 4.0 0.00 0.00 0.00 77 1019.0
20260508220351 55 45 2.0 2.0 0.00 0.00 0.00 77 1019.0
20260508215218 55 31 3.0 3.0 0.00 0.00 0.00 76 1019.0
20260508213957 56 45 2.0 3.0 0.00 0.00 0.00 75 1018.2
20260508212756 56 45 2.0 4.0 0.00 0.00 0.00 75 1018.2
20260508211555 57 45 4.0 5.0 0.00 0.00 0.00 74 1015.6
20260508210354 57 45 3.0 5.0 0.00 0.00 0.00 74 1015.6